Location: Indian Hills
(32.9760°N, 85.9450°W)
Time: 14:14:19
(UTC+00:00)

Cosmos 2227 - Pass Details

Date: 09 December 2019
Orbit: 834 x 862 km, 71.0° (Epoch: 20 January)

Event Time Altitude Azimuth Distance (km) Brightness Sun altitude
Rises 10:26:03 0° 199° (SSW) 3,407 7.3 -26.3°
Reaches altitude 10° 10:28:28 10° 199° (SSW) 2,478 6.5 -25.8°
Maximum altitude 10:34:11 90° 120° (ESE) 864 4.1 -24.6°
Drops below altitude 10° 10:39:58 10° 21° (NNE) 2,503 6.7 -23.5°
Sets 10:42:26 0° 21° (NNE) 3,444 7.5 -23.0°
